Regional Weather Roundup
Issued by NWS

Home | Current Version | Previous Version | Graphics & Text | Print | Product List | Glossary On
Versions: 1 2 3 4 5 6 7 8 9 10 11 12 13 14 15 16 17 18 19 20 21 22 23 24 25 26 27 28 29 30 31 32 33 34 35 36 37 38 39 40 41 42 43 44 45 46 47 48 49 50
521
ASUS45 KBOU 240207
RWRCO

WEATHER ROUNDUP FOR COLORADO
NATIONAL WEATHER SERVICE DENVER/BOULDER CO
800 PM MDT THU MAR 23 2017

NOTE: "FAIR" INDICATES FEW OR NO CLOUDS BELOW 12000 FEET WITH NO
SIGNIFICANT WEATHER AND/OR OBSTRUCTIONS TO VISIBILITY.

COZ001>005-013-030-031-240300-
...NORTHWEST COLORADO...

CITY           SKY/WX    TMP DP  RH WIND       PRES   REMARKS
CRAIG          CLOUDY    46  33  60 N15G30    29.80R
HAYDEN         CLOUDY    43  30  61 NW20G26   29.80R
MEEKER         LGT RAIN  44  37  76 W7        29.78S
MOUNT WERNER   NOT AVBL
STEAMBOAT SPGS CLOUDY    46  29  51 CALM      29.77F
WALDEN         NOT AVBL
$$

COZ006>008-011-240300-
...WEST CENTRAL VALLEYS...

CITY           SKY/WX    TMP DP  RH WIND       PRES   REMARKS
GRAND JUNCTION CLOUDY    47  41  80 NE5       29.77R
MONTROSE       CLOUDY    42  37  82 NW15      29.81R
EAGLE          PTCLDY    43  30  61 N7        29.79F
RIFLE          MOCLDY    49  34  56 W6        29.77R
DELTA          CLOUDY    46  38  73 W12       29.79R
NUCLA          RAIN      41  36  81 CALM      29.85R
$$

COZ017>023-064>068-240300-
...SOUTHWEST COLORADO...

CITY           SKY/WX    TMP DP  RH WIND       PRES   REMARKS
DURANGO        FLURRIES  35  34  96 W16       29.79S WCI  25
CORTEZ         LGT RAIN  39  35  86 SW7       29.84R
PAGOSA SPRINGS MOCLDY    33  33 100 CALM      29.78S
TELLURIDE      NOT AVBL
WOLF CREEK PAS CLOUDY    19  19 100 SW8       29.84F FOG     WCI   9
$$

COZ009-010-012-014-032>034-037-058>063-240300-
...CENTRAL COLORADO...

CITY           SKY/WX    TMP DP  RH WIND       PRES   REMARKS
ASPEN          CLOUDY    34  33  96 S9        29.80F WCI  27
BUENA VISTA    CLOUDY    43  26  50 NW28G37   29.72S
COPPER MTN     CLOUDY    27  21  80 MISG      29.88S
BERTHOUD PASS  CLOUDY    21  10  63 NE8G16    29.91R THUNDER WCI  12
COTTONWOOD PAS CLOUDY    37  25  60 W5        29.77F
GUNNISON       FAIR      37  29  72 SW3       29.77F
KREMMLING      FAIR      41  36  81 CALM      29.83S
LEADVILLE      CLOUDY    30  21  69 N14G26    29.81S WCI  19
MONARCH PASS   SNOW      27  25  93 NE12      29.92F VSB<1/4 WCI  16
SALIDA         CLOUDY    42  35  75 W10       29.80S
SUNLIGHT       CLOUDY    27  23  86 W3        29.91R
WILKERSON PASS CLOUDY    32  18  55 CALM      29.87R
$$

COZ069>075-240300-
...SAN LUIS VALLEY/SANGRE DE CRISTO MOUNTAINS...

CITY           SKY/WX    TMP DP  RH WIND       PRES   REMARKS
ALAMOSA        LGT RAIN  39  33  79 NW9       29.69S
LA VETA PASS   NOT AVBL
SAGUACHE       CLOUDY    37  34  87 NW14      29.71F
$$

COZ035-036-038>040-240300-
...NORTHERN COLORADO FRONT RANGE...

CITY           SKY/WX    TMP DP  RH WIND       PRES   REMARKS
DENVER INTL AP MOCLDY    61  26  26 N24G37    29.60S
DMNS CITY PARK   N/A     62  20  20 NE20G30   29.60S
AURORA         NOT AVBL
FRONT RANGE AP NOT AVBL
ERIE MUNI ARPT MOCLDY    60  21  22 N10G16    29.63R
BOULDER MUN AP FAIR      59  27  29 N10       29.63R
CENTENNIAL     CLOUDY    61  16  17 NW7       29.62R
BROOMFIELD     MOCLDY    59  23  25 NW13      29.65R
FORT COLLINS   FAIR      55  38  52 NE36G43   29.67R
LONGMONT       MOCLDY    61  25  24 N10       29.66R
$$

COZ041-046-047-076>085-087-088-240300-
...PIKES PEAK/PALMER DIVIDE AND SOUTHERN FOOTHILLS...

CITY           SKY/WX    TMP DP  RH WIND       PRES   REMARKS
COLO. SPRINGS  MOCLDY    59  19  21 N13       29.61R
A. F. ACADEMY  NOT AVBL
SCHRIEVER AFB  MOCLDY    56  14  19 W12       29.60S
ELLICOTT         N/A    N/A N/A N/A CALM      29.59R
FALCON         MOCLDY    55  15  20 NW7       29.65S
FORT CARSON    FAIR      58  18  20 W5        29.56R
LIMON          FAIR      61  20  20 W3        29.57F
MONUMENT HILL  FAIR      52  18  25 NW10      29.68R
TRINIDAD       FAIR      58  17  20 SW16      29.53F
$$

COZ042>045-048>051-090-091-240300-
...NORTHEAST COLORADO...

CITY           SKY/WX    TMP DP  RH WIND       PRES   REMARKS
GREELEY ARPT     N/A     57  40  52 MISG      29.66R HAZE
AKRON          FAIR      66  21  18 W3        29.54S
BURLINGTON     FAIR      65  25  22 W14       29.50F
WRAY           FAIR      70  27  19 N12       29.46F
STERLING       FAIR      64  36  34 N20G35    29.53R
HOLYOKE        FAIR      66  41  39 NE15      29.50F
FORT MORGAN    FAIR      62  31  31 N36G47    29.57S
$$

COZ086-089-092>099-240300-
...SOUTHEAST COLORADO...

CITY           SKY/WX    TMP DP  RH WIND       PRES   REMARKS
PUEBLO         FAIR      63  23  21 NW9       29.50S
LA JUNTA       FAIR      66  25  21 W15       29.46R
LAMAR          FAIR      67  34  29 SE20G26   29.45R
SPRINGFIELD      N/A     61  45  55 S24G31    29.50S
$$




USA.gov is the U.S. government's official web portal to all federal, state and local government web resources and services.